User: anonymous   Login
Location: Newark
(48.8604°N, 2.3376°E)
Time: 03:24:55
(UTC+00:00)
Language:

RS-15 - Orbit

View from above orbital plane
View from above orbital plane
View from above satellite
View from above satellite

Ground track
Ground track

The orbit data is extracted from the following two-line orbital elements,

1 23439U 94085A   21332.95719866 -.00000037  00000-0  15882-3 0  9997
2 23439  64.8126 109.8968 0165156 306.7882  51.7981 11.27570432108887
Epoch (UTC): 28 November 2021 22:58:21
Eccentricity: 0.0165156
inclination: 64.8126°
perigee height: 1883 km
apogee height: 2161 km
right ascension of ascending node: 109.8968°
argument of perigee: 306.7882°
revolutions per day: 11.27570432
mean anomaly at epoch: 51.7981°
orbit number at epoch: 10888

The dashed part of the orbit path shows where the satellite is in the earth's shadow,  

DLR